Location: ????????
(60.5616°N, 46.8254°E)
Time: 14:58:49
(UTC+00:00)

H-2A R/B - Pass Details

Date: 18 February 2020
Orbit: 733 x 837 km, 98.2° (Epoch: 28 March)

Event Time Altitude Azimuth Distance (km) Brightness Sun altitude
Rises 14:46:26 0° 128° (SE) 3,340 4.9 -7.7°
Reaches altitude 10° 14:48:54 10° 120° (ESE) 2,424 4.1 -8.0°
Maximum altitude 14:53:47 37° 55° (NE) 1,284 2.7 -8.6°
Drops below altitude 10° 14:58:45 10° 350° (N) 2,466 4.7 -9.2°
Sets 15:01:17 0° 343° (NNW) 3,406 5.5 -9.5°
